Cloud_Cover
0 0 2 48 95 7 11 43 5 100 3 0 47 85 100 100 100 100 100 100 100 100 81 32 28 5 100 50 4 4 4 5 59 5 1 0 66 33 8 100 100 100 100 100
1 3 49 72 5 26 14 7 34 5 2 1 8 77 100 100 100 100 100 100 100 100 100 100 94 100 86 99 100 99 85 5 0 5 5 2 0 0 86 100 100 100 99 36
95 76 72 76 8 33 14 0 6 5 5 94 43 96 100 100 100 100 100 100 100 100 100 100 100 91 98 100 100 100 78 5 4 47 52 3 0 4 5 18 79 89 100 100
42 4 2 72 10 5 23 5 5 5 5 33 55 99 56 62 78 100 100 100 100 100 100 100 46 7 49 67 26 95 97 74 88 72 7 5 5 15 41 64 94 83 99 100
14 21 5 5 5 10 5 5 5 10 4 5 67 51 100 28 41 100 100 100 100 100 87 21 74 100 100 66 78 100 100 44 5 5 8 40 8 64 75 100 98 100 100 100
5 5 28 7 64 92 5 5 6 5 1 3 5 5 100 64 100 100 99 99 100 92 66 70 82 100 86 100 99 51 7 5 6 5 100 94 95 46 98 93 98 90 84 64
24 5 60 83 87 87 10 0 2 6 72 2 0 14 98 75 100 100 95 96 96 51 100 100 100 32 3 5 6 68 36 5 31 100 39 29 6 5 5 5 5 8 19 7
41 100 100 97 36 64 5 5 2 3 2 5 5 88 84 100 100 57 45 50 38 19 94 49 9 5 15 49 16 59 100 100 70 98 17 30 5 5 5 5 5 16 92 70
61 40 87 61 96 16 16 5 4 2 0 34 73 81 78 100 96 100 100 97 4 29 5 5 5 5 5 5 1 1 4 51 6 21 75 9 5 5 5 58 62 5 6 83
68 2 35 41 84 26 43 8 3 0 1 6 97 49 99 100 100 100 32 5 5 5 5 4 0 2 2 0 4 10 55 100 99 24 27 63 39 42 77 84 63 100 93 100
30 16 61 5 90 10 5 0 0 1 58 58 7 100 100 100 100 95 44 66 32 2 0 3 0 3 0 1 7 94 86 100 54 86 19 100 80 96 100 82 96 100 99 100
100 100 74 5 7 3 5 10 2 0 3 3 6 100 100 100 100 91 44 53 5 5 0 0 0 5 5 5 100 8 100 100 91 11 26 47 60 24 100 75 91 73 85 62
12 35 2 11 26 36 83 7 3 5 12 5 5 88 100 100 100 8 5 8 5 5 4 0 5 13 5 5 5 90 97 12 55 100 49 13 18 5 13 70 95 9 5 5
2 0 2 36 87 85 100 30 22 58 5 5 54 81 99 100 69 4 49 60 2 0 0 4 5 82 5 5 5 8 40 10 62 100 100 70 9 38 70 29 32 38 76 38
2 0 2 49 72 58 99 75 66 5 100 91 68 39 99 99 62 39 12 0 0 5 5 5 5 100 5 5 5 5 5 93 41 44 36 35 5 16 100 100 99 52 5 14
24 2 2 74 78 53 74 41 24 69 100 9 41 93 47 100 73 5 0 0 1 5 5 2 5 100 5 5 5 14 56 22 18 52 100 56 30 44 97 38 22 44 30 17
5 1 34 17 100 39 57 100 100 99 100 100 100 49 5 99 18 5 5 5 5 5 5 3 5 48 13 5 39 76 20 81 17 38 99 41 5 7 78 26 45 57 86 66
5 0 98 97 88 94 100 32 10 93 100 95 25 88 88 5 5 5 5 5 5 4 5 53 5 28 54 5 33 85 54 5 5 5 10 5 5 4 5 70 95 14 45 94
6 54 5 55 99 100 100 100 96 100 95 24 99 100 7 5 5 2 2 5 3 5 5 49 5 25 35 5 65 93 9 5 5 5 5 5 13 64 58 52 99 69 5 10
10 100 93 12 100 62 99 92 93 5 100 23 43 93 6 5 0 0 2 54 6 5 5 34 5 20 5 7 90 92 3 5 5 62 97 76 5 18 88 100 100 100 100 41
53 87 100 100 100 100 100 69 90 100 98 39 45 8 5 4 0 0 66 10 70 56 13 53 5 5 5 5 37 10 100 79 5 71 59 69 28 12 23 100 91 100 25 69
97 96 100 80 100 100 18 76 100 64 28 13 6 5 5 0 0 1 5 12 15 34 5 39 6 5 5 5 5 100 5 5 16 100 65 41 82 5 5 5 9 100 94 35
100 100 100 100 100 78 28 100 64 99 77 70 36 5 5 4 1 1 10 5 5 5 5 5 34 49 34 5 7 33 5 5 7 35 8 5 25 5 5 5 5 9 6 5
100 94 100 100 100 59 68 82 100 54 97 100 13 5 3 0 0 5 5 5 5 5 89 5 100 97 6 5 5 5 6 82 43 5 7 81 97 5 5 15 5 5 5 0
100 99 100 100 100 100 100 100 100 100 100 82 5 5 5 0 1 5 18 5 5 5 65 5 67 19 30 6 5 5 5 75 50 19 5 5 13 49 80 40 5 5 5 5
88 100 100 100 100 100 100 97 100 100 7 7 5 5 2 1 5 23 6 3 70 64 40 24 6 5 18 5 5 8 6 6 98 54 5 13 18 100 100 62 42 5 5 5